Waarnemingen

Advertentie
Mijn weer
Florennes, België (6456): temperatuur & dauwpunt: 15.06.2019 00:00:00 - 21.06.2019 00:00:00 (CEST)Florennes, België (6456): windsnelheid & windstoten: 15.06.2019 00:00:00 - 21.06.2019 00:00:00 (CEST)Florennes, België (6456): windrichting: 15.06.2019 00:00:00 - 21.06.2019 00:00:00 (CEST)Florennes, België (6456): luchtdruk: 15.06.2019 00:00:00 - 21.06.2019 00:00:00 (CEST)Florennes, België (6456): zicht: 15.06.2019 00:00:00 - 21.06.2019 00:00:00 (CEST)
Datum & Tijd tt [°C] td [°C] ff [km/u] ff [kn] fx [km/u] fx [kn] dd ppp [hPa] vv [km]
21.06.2019 00:00:00 12,1 7,8 7 4 7 4 ZW 1018,1 20
20.06.2019 23:00:00 12,8 8,0 7 4 - - WZW 1017,3 20
20.06.2019 22:00:00 13,6 7,9 11 6 25 14 WZW 1016,7 20
20.06.2019 21:00:00 16,2 9,9 11 6 22 12 W 1016,1 20
20.06.2019 20:00:00 16,6 9,8 18 10 - - W 1015,3 20
20.06.2019 19:00:00 17,8 9,9 22 12 29 16 W 1014,7 20
20.06.2019 18:00:00 17,6 10,8 18 10 29 16 W 1014,2 20
20.06.2019 17:00:00 18,2 11,4 18 10 - - WZW 1014,1 20
20.06.2019 16:00:00 18,6 11,2 14 8 25 14 W 1013,7 20
20.06.2019 15:00:00 17,6 11,8 14 8 22 12 WZW 1013,7 20
20.06.2019 14:00:00 16,0 12,8 14 8 - - WZW 1014,0 20
20.06.2019 13:00:00 16,0 13,2 14 8 22 12 WZW 1013,7 10
20.06.2019 12:00:00 15,4 14,1 11 6 18 10 ZW 1013,3 8
20.06.2019 11:00:00 15,1 13,6 13 7 - - ZW 1013,1 4,0
20.06.2019 10:00:00 15,5 13,2 11 6 18 10 ZZW 1012,8 9
20.06.2019 09:00:00 15,1 13,5 7 4 14 8 ZZW 1012,6 8
20.06.2019 08:00:00 14,3 12,8 7 4 - - Z 1012,6 5
20.06.2019 07:00:00 13,8 12,9 4 2 11 6 N 1012,3 6
20.06.2019 06:00:00 13,6 12,6 7 4 18 10 ZZW 1012,2 5
20.06.2019 05:00:00 13,6 12,8 11 6 - - WZW 1011,8 5
20.06.2019 04:00:00 14,0 13,2 11 6 25 14 WZW 1011,6 4,7
20.06.2019 03:00:00 14,1 13,4 13 7 18 10 ZW 1011,2 8
20.06.2019 02:00:00 14,2 13,5 11 6 - - ZZW 1011,2 11
20.06.2019 01:00:00 14,5 13,8 11 6 18 10 ZW 1011,1 10
20.06.2019 00:00:00 15,0 13,6 11 6 18 10 WZW 1010,6 20
19.06.2019 23:00:00 15,1 14,0 4 2 - - N 1009,7 20
19.06.2019 22:00:00 16,0 14,0 11 6 25 14 WZW 1009,7 20
19.06.2019 21:00:00 17,6 16,5 7 4 14 8 ZO 1008,7 19
19.06.2019 20:00:00 19,0 15,7 7 4 - - Z 1008,2 18
19.06.2019 19:00:00 19,0 14,8 7 4 18 10 ZW 1008,1 20
19.06.2019 18:00:00 15,8 14,4 26 14 76 41 W 1009,1 10
19.06.2019 17:00:00 16,4 14,8 21 11 - - ZZO 1007,8 7
19.06.2019 16:00:00 22,2 15,1 14 8 36 19 Z 1007,7 10
19.06.2019 15:00:00 24,6 14,1 18 10 29 16 Z 1007,5 10
19.06.2019 14:00:00 25,5 12,5 18 10 - - ZZO 1007,7 20
19.06.2019 13:00:00 23,5 14,2 7 4 18 10 ZZW 1008,0 20
19.06.2019 12:00:00 21,9 15,1 11 6 29 16 Z 1008,2 15
19.06.2019 11:00:00 23,4 15,6 22 12 - - Z 1008,0 20
19.06.2019 10:00:00 21,1 15,1 18 10 25 14 Z 1007,8 20
19.06.2019 09:00:00 21,2 14,5 7 4 18 10 Z 1007,2 20
19.06.2019 08:00:00 20,2 14,2 7 4 - - ZZW 1007,3 20
19.06.2019 07:00:00 19,3 13,7 14 8 22 12 ZZO 1007,0 20
19.06.2019 06:00:00 18,1 13,4 11 6 18 10 ZO 1007,5 20
19.06.2019 05:00:00 18,3 13,4 7 4 - - O 1008,1 20
19.06.2019 04:00:00 18,4 13,1 7 4 11 6 ONO 1008,5 20
19.06.2019 03:00:00 18,5 12,9 7 4 11 6 O 1009,0 20
19.06.2019 02:00:00 18,8 12,4 7 4 - - ONO 1009,7 20
19.06.2019 01:00:00 17,7 12,5 7 4 7 4 N 1010,3 20
19.06.2019 00:00:00 17,8 13,0 4 2 4 2 N 1011,0 20
18.06.2019 23:00:00 21,1 12,5 4 2 - - N 1011,2 20
18.06.2019 22:00:00 22,5 12,4 4 2 7 4 N 1011,3 20
18.06.2019 21:00:00 23,9 11,9 7 4 14 8 ZZO 1011,0 20
18.06.2019 20:00:00 24,8 12,2 4 2 - - N 1010,8 20
18.06.2019 19:00:00 25,4 12,4 4 2 11 6 N 1011,1 20
18.06.2019 18:00:00 24,7 10,9 4 2 14 8 N 1011,6 20
18.06.2019 17:00:00 25,2 13,6 8 4 - - ZZO 1012,0 10
18.06.2019 16:00:00 25,2 11,5 7 4 14 8 Z 1012,6 20
18.06.2019 15:00:00 25,1 12,5 7 4 22 12 ZZO 1013,1 20
18.06.2019 14:00:00 24,0 13,5 4 2 - - N 1013,5 20
18.06.2019 13:00:00 23,8 13,7 4 2 11 6 N 1013,8 20
18.06.2019 12:00:00 23,4 13,7 4 2 7 4 N 1014,2 20
18.06.2019 11:00:00 22,2 16,0 4 2 - - N 1014,5 20
18.06.2019 10:00:00 20,8 15,1 4 2 11 6 N 1014,7 20
18.06.2019 09:00:00 19,6 14,5 4 2 7 4 N 1015,5 20
18.06.2019 08:00:00 18,0 14,9 4 2 - - N 1015,3 20
18.06.2019 07:00:00 16,3 13,2 4 2 4 2 N 1015,7 20
18.06.2019 06:00:00 15,3 11,8 4 2 4 2 N 1016,0 20
18.06.2019 05:00:00 16,5 11,7 4 2 - - N 1016,0 20
18.06.2019 04:00:00 16,9 11,8 4 2 4 2 N 1016,2 20
18.06.2019 03:00:00 16,8 12,2 4 2 7 4 N 1016,6 20
18.06.2019 02:00:00 17,0 12,5 4 2 - - N 1017,0 20
18.06.2019 01:00:00 17,3 12,9 7 4 7 4 W 1017,2 20
18.06.2019 00:00:00 18,2 12,8 4 2 7 4 N 1017,2 20
17.06.2019 23:00:00 18,8 13,1 4 2 - - N 1017,1 20
17.06.2019 22:00:00 20,2 13,4 4 2 7 4 N 1016,8 20
17.06.2019 21:00:00 22,1 12,9 4 2 11 6 N 1016,7 20
17.06.2019 20:00:00 23,5 12,7 7 4 - - W 1016,6 20
17.06.2019 19:00:00 23,4 11,9 4 2 7 4 N 1016,8 20
17.06.2019 18:00:00 23,8 11,0 4 2 11 6 N 1017,2 20
17.06.2019 17:00:00 23,5 12,3 4 2 - - N 1017,6 20
17.06.2019 16:00:00 24,1 12,1 7 4 14 8 NO 1017,7 20
17.06.2019 15:00:00 22,8 10,8 7 4 14 8 ZZO 1018,3 20
17.06.2019 14:00:00 23,3 11,9 7 4 - - N 1018,8 20
17.06.2019 13:00:00 21,3 11,4 7 4 25 14 Z 1019,5 20
17.06.2019 12:00:00 20,4 12,7 7 4 18 10 ZZW 1019,8 20
17.06.2019 11:00:00 19,9 11,9 11 6 - - ZZO 1020,3 20
17.06.2019 10:00:00 19,0 12,0 7 4 14 8 ZZO 1020,7 20
17.06.2019 09:00:00 17,7 11,8 7 4 11 6 ZO 1021,0 20
17.06.2019 08:00:00 15,2 11,3 4 2 - - N 1021,1 20
17.06.2019 07:00:00 12,8 11,0 7 4 7 4 ONO 1021,3 10
17.06.2019 06:00:00 12,2 10,6 5 3 7 4 O 1021,5 10
17.06.2019 05:00:00 11,9 10,6 7 4 - - ONO 1021,6 20
17.06.2019 04:00:00 12,5 10,8 4 2 7 4 N 1021,7 20
17.06.2019 03:00:00 11,8 10,6 7 4 7 4 ONO 1021,8 20
17.06.2019 02:00:00 14,0 11,4 4 2 - - N 1021,7 20
17.06.2019 01:00:00 14,1 11,2 4 2 4 2 N 1021,7 20
17.06.2019 00:00:00 14,1 11,1 4 2 4 2 N 1022,0 20
16.06.2019 23:00:00 15,0 11,3 4 2 - - N 1021,8 20
16.06.2019 22:00:00 17,2 11,7 4 2 11 6 N 1021,2 20
16.06.2019 21:00:00 18,6 11,0 7 4 18 10 ZW 1021,1 20
16.06.2019 20:00:00 19,4 10,8 11 6 - - ZZW 1021,0 19
16.06.2019 19:00:00 19,8 10,8 18 10 25 14 ZW 1020,7 20
16.06.2019 18:00:00 19,9 9,8 18 10 29 16 ZZW 1020,6 20
16.06.2019 17:00:00 19,8 10,5 11 6 - - Z 1020,7 20
16.06.2019 16:00:00 18,7 10,4 18 10 29 16 Z 1021,2 20
16.06.2019 15:00:00 19,4 11,1 14 8 29 16 ZZW 1021,0 20
16.06.2019 14:00:00 18,2 9,6 14 8 - - ZW 1021,1 18
16.06.2019 13:00:00 17,2 10,2 22 12 32 18 ZZW 1021,3 20
16.06.2019 12:00:00 16,2 10,9 18 10 29 16 ZZW 1021,5 20
16.06.2019 11:00:00 15,7 11,3 18 10 - - ZZW 1021,2 20
16.06.2019 10:00:00 15,5 11,6 18 10 29 16 ZW 1020,7 20
16.06.2019 09:00:00 14,6 11,5 18 10 32 18 ZZW 1020,6 20
16.06.2019 08:00:00 13,9 10,9 14 8 - - Z 1020,2 20
16.06.2019 07:00:00 12,6 9,9 14 8 29 16 ZZW 1020,2 20
16.06.2019 06:00:00 11,9 9,2 14 8 25 14 ZZW 1019,8 20
16.06.2019 05:00:00 12,1 8,9 11 6 - - ZW 1019,7 20
16.06.2019 04:00:00 12,8 9,3 11 6 14 8 ZZO 1019,5 20
16.06.2019 03:00:00 13,3 9,2 7 4 14 8 Z 1019,2 20
16.06.2019 02:00:00 14,0 9,6 4 2 - - N 1019,2 20
16.06.2019 01:00:00 15,1 9,0 11 6 18 10 ZZW 1018,6 20
16.06.2019 00:00:00 15,5 8,8 14 8 22 12 ZZW 1018,0 20
15.06.2019 23:00:00 15,4 8,2 14 8 - - ZZW 1017,6 20
15.06.2019 22:00:00 16,5 9,1 7 4 22 12 ZW 1017,0 20
15.06.2019 21:00:00 18,5 9,5 7 4 25 14 ZZW 1016,2 20
15.06.2019 20:00:00 19,3 9,5 18 10 - - WZW 1016,0 20
15.06.2019 19:00:00 20,1 9,6 18 10 36 19 ZW 1015,6 20
15.06.2019 18:00:00 19,7 8,7 22 12 36 19 ZW 1015,7 20
15.06.2019 17:00:00 20,3 8,6 22 12 - - ZW 1015,7 20
15.06.2019 16:00:00 20,2 10,0 22 12 40 21 ZZW 1015,6 20
15.06.2019 15:00:00 19,9 10,0 22 12 36 19 ZZW 1015,3 20
15.06.2019 14:00:00 20,2 8,7 22 12 - - ZW 1015,2 20
15.06.2019 13:00:00 19,5 9,2 25 14 36 19 ZW 1015,1 20
15.06.2019 12:00:00 18,5 11,1 22 12 40 21 WZW 1014,6 20
15.06.2019 11:00:00 17,9 13,6 25 14 - - WZW 1014,1 20
15.06.2019 10:00:00 16,0 14,5 18 10 29 16 ZZW 1013,7 10
15.06.2019 09:00:00 15,2 14,4 7 4 11 6 ZW 1013,2 13
15.06.2019 08:00:00 13,8 12,9 4 2 - - N 1012,7 3,1
15.06.2019 07:00:00 13,3 12,5 4 2 22 12 N 1012,3 4,7
15.06.2019 06:00:00 13,5 12,7 16 9 32 18 WZW 1012,1 5
15.06.2019 05:00:00 15,5 14,6 7 4 - - Z 1011,2 4,4
15.06.2019 04:00:00 15,8 14,9 9 5 14 8 Z 1010,8 5
15.06.2019 03:00:00 16,1 14,9 2 1 11 6 - 1011,1 8
15.06.2019 02:00:00 16,5 14,8 7 4 - - ZZO 1011,3 20
15.06.2019 01:00:00 16,7 15,2 4 2 11 6 N 1010,8 19
15.06.2019 00:00:00 16,8 15,0 15 8 25 14 Z 1012,3 10

tt = temperatuur
td = dauwpunt
ff = windsnelheid
fx = windstoten
dd = windrichting
ppp = luchtdruk
vv = zicht

Weerstations in de omgeving